Home > Weather > Kyiv > Past weeks

Flag for Ukraine Weather for the Past 2 Weeks in Kyiv, Ukraine

Now
37 °F

Clear.


Feels Like: 35 °F
Forecast: 29 / 40 °F
Wind: 3 mph from South

Location: Kyiv

Current Time: Feb 12, 2016 at 6:15:23 PM

Latest Report: Feb 12, 2016 at 5:30 PM


Visibility: 10 mi

Pressure: 29.92 "Hg

Humidity: 81%

Dew point: 32 °F

Location of KyivLocation

Historic Weather in Kyiv — Graph

°F

Kyiv Temperature Yesterday

Maximum temperature yesterday: 41 °F (at 12:30 AM)
Minimum temperature yesterday: 32 °F (at 12:00 PM)
Average temperature yesterday: 35 °F

High & Low Weather Summary for the Past Weeks

 TemperatureHumidityPressure
High48 °F (Feb 3, 10:30 AM)100% (Jan 31, 3:00 PM)30.33 "Hg (Jan 31, 3:00 PM)
Low21 °F (Feb 6, 10:30 PM)48% (Feb 6, 2:30 PM)29.45 "Hg (Feb 11, 11:30 AM)
Average35 °F81%29.94 "Hg
* Reported Jan 28 5:00 PM — Feb 12 5:00 PM, Kyiv, Weather by CustomWeather, © 2016

Note: Actual official high and low records may vary slightly from our data, if they occured in-between our weather recording intervals... More about our weather records

Advertising

Kyiv Weather History for the Previous 24 Hours

 ConditionsComfort  
Time TempWeatherWind HumidityBarometerVisibility
5:00 PM
Fri, Feb 12
39 °FPassing clouds.3 mph75%29.92 "HgN/A
4:30 PM39 °FSunny.6 mph75%29.92 "Hg10 mi
4:00 PM41 °FSunny.6 mph70%29.92 "Hg10 mi
3:30 PM41 °FSunny.6 mph70%29.92 "Hg10 mi
3:00 PM39 °FPassing clouds.6 mph75%29.92 "HgN/A
2:30 PM39 °FPassing clouds.6 mph75%29.89 "HgN/A
2:00 PM41 °FPassing clouds.3 mph70%29.89 "HgN/A
1:30 PM41 °FPassing clouds.6 mph66%29.89 "HgN/A
1:00 PM39 °FPassing clouds.6 mph70%29.89 "HgN/A
12:30 PM39 °FPassing clouds.6 mph70%29.89 "HgN/A
12:00 PM39 °FPassing clouds.6 mph70%29.89 "HgN/A
11:30 AM37 °FSunny.6 mph75%29.89 "Hg10 mi
11:00 AM37 °FSunny.8 mph75%29.89 "Hg10 mi
10:30 AM37 °FSunny.8 mph75%29.86 "Hg10 mi
10:00 AM36 °FSunny.8 mph81%29.86 "Hg10 mi
9:30 AM36 °FSunny.8 mph81%29.86 "Hg10 mi
9:00 AM36 °FSunny.8 mph81%29.86 "Hg10 mi
8:30 AM34 °FSunny.6 mph81%29.83 "Hg10 mi
8:00 AM32 °FSunny.8 mph87%29.83 "Hg10 mi
7:30 AM32 °FScattered clouds.8 mph87%29.83 "HgN/A
7:00 AM32 °FPassing clouds.6 mph93%29.80 "HgN/A
6:30 AM34 °FPassing clouds.8 mph87%29.80 "HgN/A
6:00 AM32 °FPassing clouds.8 mph93%29.80 "HgN/A
5:30 AM34 °FPassing clouds.8 mph87%29.77 "HgN/A
5:00 AM34 °FPassing clouds.6 mph87%29.77 "HgN/A
4:30 AM36 °FPassing clouds.8 mph87%29.74 "HgN/A
4:00 AM36 °FPassing clouds.8 mph87%29.74 "HgN/A
3:30 AM36 °FPassing clouds.8 mph87%29.74 "HgN/A
3:00 AM36 °FPassing clouds.10 mph87%29.74 "HgN/A
2:30 AM36 °FPassing clouds.8 mph87%29.71 "HgN/A
2:00 AM36 °FPassing clouds.8 mph87%29.71 "HgN/A
1:30 AM36 °FPassing clouds.8 mph87%29.71 "HgN/A
1:00 AM36 °FPassing clouds.8 mph87%29.68 "HgN/A
12:00 AM34 °FPassing clouds.8 mph87%29.68 "HgN/A
11:30 PM
Thu, Feb 11
34 °FPassing clouds.8 mph93%29.68 "HgN/A
11:00 PM34 °FClear.8 mph93%29.68 "Hg10 mi
10:30 PM34 °FPassing clouds.8 mph87%29.65 "HgN/A
10:00 PM34 °FClear.8 mph87%29.65 "Hg10 mi
9:30 PM34 °FClear.8 mph93%29.65 "Hg10 mi
9:00 PM34 °FClear.8 mph87%29.62 "Hg10 mi
8:30 PM34 °FPassing clouds.6 mph93%29.62 "HgN/A
8:00 PM34 °FPassing clouds.8 mph93%29.62 "HgN/A
7:30 PM34 °FPassing clouds.6 mph93%29.59 "HgN/A
7:00 PM34 °FClear.8 mph93%29.59 "Hg10 mi
6:30 PM34 °FClear.6 mph93%29.56 "Hg10 mi
6:00 PM34 °FClear.8 mph93%29.56 "Hg10 mi
Weather by CustomWeather, © 2016

See weather overviewHow to use our weather pages